Location: Alincthun
(50.7310°N, 1.8022°E)
Time: 20:50:38
(UTC+00:00)

STARLINK-1186 - Pass Details

Date: 17 February 2020
Orbit: 376 x 383 km, 53.0° (Epoch: 03 April)

Event Time Altitude Azimuth Distance (km) Brightness Sun altitude
Exits shadow 04:53:47 52° 28° (NNE) 498 3.5 -20.9°
Drops below altitude 10° 04:56:33 10° 74° (ENE) 1,430 6.9 -20.5°
Sets 04:58:38 0° 78° (ENE) 2,279 8.4 -20.2°
